Volver al catálogo

STARLINK-34382

ActivoComunicacionesVLEO
NORAD 64667·PAYLOAD·🇺🇸 United States

Lanzado Jun 28, 2025 desde Cape Canaveral Space Force Station

Loading…

Próximos Pases (próximas 24 horas)

TLE

ActualizadoSource: CelesTrak SupGP

Época: Sep 14, 2026, 22:49 UTC

1 64667C 25139D   26257.95118056  .00020656  00000+0  61031-3 0  2575
2 64667  53.1592 325.4785 0001214  87.2338 344.9671 15.34378845    12

Sigue STARLINK-34382 en tiempo real con AllMySat

Download on the App Store